Regional Weather Roundup
Issued by NWS

Home | Current Version | Previous Version | Graphics & Text | Print | Product List | Glossary Off
Versions: 1 2 3 4 5 6 7 8 9 10 11 12 13 14 15 16 17 18 19 20 21 22 23 24 25 26 27 28 29 30 31 32 33 34 35 36 37 38 39 40 41 42 43 44 45 46 47 48 49 50

000
ASUS43 KTOP 061259
RWRKS

WEATHER ROUNDUP FOR KANSAS
NATIONAL WEATHER SERVICE GOODLAND KS
800 AM CDT FRI MAY 06 2016

NOTE:  "FAIR" INDICATES FEW OR NO CLOUDS BELOW 12,000 FEET WITH NO
SIGNIFICANT WEATHER AND/OR OBSTRUCTIONS TO VISIBILITY.

KSZ001>006-013>018-027>032-041>047-061400-
NORTHWEST KANSAS

CITY           SKY/WX    TMP DP  RH WIND       PRES   REMARKS
GOODLAND       CLOUDY    55  46  71 S21       29.99R
HAYS           CLOUDY    57  43  58 S6        30.05R
HILL CITY      CLOUDY    59  46  62 S6        30.03R
RUSSELL        CLOUDY    58  46  64 S13       30.03R
$$

KSZ061>065-074>080-084>089-061400-
SOUTHWEST KANSAS

CITY           SKY/WX    TMP DP  RH WIND       PRES   REMARKS
DODGE CITY     CLOUDY    53  44  71 S10       30.07R
ELKHART          N/A     50  44  80 S9          N/A
GARDEN CITY    MOSUNNY   58  46  64 S14       30.04R
GREAT BEND     MOSUNNY   57  45  62 S13       30.06R
LIBERAL        SUNNY     55  45  67 SE9       30.07R
$$

KSZ066>073-081>083-090>101-061400-
SOUTHEAST KANSAS

CITY           SKY/WX    TMP DP  RH WIND       PRES   REMARKS
CHANUTE        SUNNY     56  49  77 S3        30.10R
COFFEYVILLE    SUNNY     54  51  90 CALM      30.11R
HUTCHINSON     MOSUNNY   55  50  83 CALM      30.08R
MEDICINE LODGE   N/A     58  46  64 SE3       30.07R
NEWTON         SUNNY     57  45  62 S7        30.11R
PARSONS        SUNNY     54  51  90 CALM      30.11R
WICHITA INTL   MOSUNNY   56  50  80 CALM      30.08R
WICHITA JABRA  SUNNY     57  51  80 S5        30.08R
WINFIELD       SUNNY     56  50  80 SE3       30.29F
$$

KSZ007>012-019>026-033>040-048>060-102>105-061400-
NORTHEAST KANSAS

CITY           SKY/WX    TMP DP  RH WIND       PRES   REMARKS
CONCORDIA      SUNNY     63  44  50 S10       30.04R
EMPORIA        MOSUNNY   56  49  77 S5        30.08R
LAWRENCE       SUNNY     53  48  83 CALM      30.08R
MANHATTAN      MOSUNNY   53  47  79 CALM      30.07R
OLATHE IND     SUNNY     54  46  74 S6        30.09R
OLATHE EXE     SUNNY     55  44  66 S5        30.09R
SALINA         CLOUDY    55  49  80 S5        30.06R
TOPEKA BILLARD SUNNY     55  50  83 E3        30.08R
TOPEKA FORBES  SUNNY     57  50  77 S5        30.07R
$$



USA.gov is the U.S. government's official web portal to all federal, state and local government web resources and services.